Location: Burera
(21.3780°N, 81.9534°E)
Time: 12:18:11
(UTC+00:00)

SeaSat 1 - Pass Details

Date: 13 August 2020
Orbit: 744 x 748 km, 108.0° (Epoch: 21 September)

Event Time Altitude Azimuth Distance (km) Brightness Sun altitude
Rises 22:19:02 0° 18° (NNE) 3,187 6.4 -24.9°
Reaches altitude 10° 22:21:19 10° 15° (NNE) 2,262 5.5 -24.4°
Maximum altitude 22:26:11 67° 294° (WNW) 809 2.4 -23.4°
Enters shadow 22:26:43 62° 257° (WSW) 841 2.3 -23.3°
